Time,TemperatureF,DewpointF,PressureIn,WindDirection,WindDirectionDegrees,WindSpeedMPH,WindSpeedGustMPH,Humidity,HourlyPrecipIn,Conditions,Clouds,dailyrainin,SoftwareType,DateUTC
2013-12-13 00:01:00,26.1,17.0,30.09,SE,134,1.0,1.0,68,0.00,,,0.00,Wunderground v.1.15,2013-12-13 07:01:00,
2013-12-13 00:07:00,26.4,16.9,30.09,WNW,303,1.0,1.0,67,0.00,,,0.00,Wunderground v.1.15,2013-12-13 07:07:00,
2013-12-13 00:17:00,26.1,17.0,30.09,SE,135,1.0,1.0,68,0.00,,,0.00,Wunderground v.1.15,2013-12-13 07:17:00,
2013-12-13 00:22:00,26.2,17.1,30.09,SE,141,1.0,1.0,68,0.00,,,0.00,Wunderground v.1.15,2013-12-13 07:22:00,
2013-12-13 00:27:00,26.2,17.1,30.09,SW,229,1.0,1.0,68,0.00,,,0.00,Wunderground v.1.15,2013-12-13 07:27:00,
2013-12-13 00:36:00,26.4,17.3,30.09,East,91,1.0,1.0,68,0.00,,,0.00,Wunderground v.1.15,2013-12-13 07:36:00,
2013-12-13 00:41:00,26.5,17.0,30.09,NW,308,1.0,1.0,67,0.00,,,0.00,Wunderground v.1.15,2013-12-13 07:41:00,
2013-12-13 00:46:00,26.3,16.8,30.08,NW,306,1.0,1.0,67,0.00,,,0.00,Wunderground v.1.15,2013-12-13 07:46:00,
2013-12-13 00:51:00,26.7,17.2,30.08,East,79,0.0,0.0,67,0.00,,,0.00,Wunderground v.1.15,2013-12-13 07:51:00,
2013-12-13 00:57:00,26.8,17.0,30.09,North,8,0.0,3.0,66,0.00,,,0.00,Wunderground v.1.15,2013-12-13 07:57:00,
2013-12-13 01:02:00,27.3,17.1,30.08,South,174,2.0,4.0,65,0.00,,,0.00,Wunderground v.1.15,2013-12-13 08:02:00,
2013-12-13 01:07:00,28.3,17.7,30.08,SSW,193,5.0,5.0,64,0.00,,,0.00,Wunderground v.1.15,2013-12-13 08:07:00,
2013-12-13 01:16:00,28.9,17.9,30.08,SW,217,3.0,9.0,63,0.00,,,0.00,Wunderground v.1.15,2013-12-13 08:16:00,
2013-12-13 01:21:00,29.1,18.1,30.08,SW,215,2.0,2.0,63,0.00,,,0.00,Wunderground v.1.15,2013-12-13 08:21:00,
2013-12-13 01:26:00,28.2,17.6,30.08,WSW,240,0.0,2.0,64,0.00,,,0.00,Wunderground v.1.15,2013-12-13 08:26:00,
2013-12-13 01:31:00,27.8,17.6,30.08,WSW,242,0.0,0.0,65,0.00,,,0.00,Wunderground v.1.15,2013-12-13 08:31:00,
2013-12-13 01:37:00,27.6,17.7,30.08,WSW,242,0.0,0.0,66,0.00,,,0.00,Wunderground v.1.15,2013-12-13 08:37:00,
2013-12-13 01:42:00,27.7,18.2,30.08,SW,231,0.0,1.0,67,0.00,,,0.00,Wunderground v.1.15,2013-12-13 08:42:00,
2013-12-13 01:47:00,29.0,19.8,30.08,WSW,240,2.0,5.0,68,0.00,,,0.00,Wunderground v.1.15,2013-12-13 08:47:00,
2013-12-13 01:52:00,30.8,21.1,30.08,WNW,283,4.0,5.0,67,0.00,,,0.00,Wunderground v.1.15,2013-12-13 08:52:00,
2013-12-13 01:57:00,31.3,20.9,30.08,WNW,287,4.0,5.0,65,0.00,,,0.00,Wunderground v.1.15,2013-12-13 08:57:00,
2013-12-13 02:06:00,31.9,22.2,30.07,WNW,295,4.0,6.0,67,0.00,,,0.00,Wunderground v.1.15,2013-12-13 09:06:00,
2013-12-13 02:11:00,32.1,22.4,30.07,WSW,254,5.0,5.0,67,0.00,,,0.00,Wunderground v.1.15,2013-12-13 09:11:00,
2013-12-13 02:17:00,32.1,22.4,30.07,WSW,251,5.0,6.0,67,0.00,,,0.00,Wunderground v.1.15,2013-12-13 09:17:00,
2013-12-13 02:22:00,31.8,21.7,30.08,SW,236,3.0,3.0,66,0.00,,,0.00,Wunderground v.1.15,2013-12-13 09:22:00,
2013-12-13 02:27:00,31.2,20.1,30.08,ESE,102,2.0,3.0,63,0.00,,,0.00,Wunderground v.1.15,2013-12-13 09:27:00,
2013-12-13 02:32:00,30.2,19.5,30.08,South,174,0.0,3.0,64,0.00,,,0.00,Wunderground v.1.15,2013-12-13 09:32:00,
2013-12-13 02:37:00,29.6,18.5,30.08,SE,131,2.0,3.0,63,0.00,,,0.00,Wunderground v.1.15,2013-12-13 09:37:00,
2013-12-13 02:46:00,29.5,19.2,30.08,SE,135,2.0,2.0,65,0.00,,,0.00,Wunderground v.1.15,2013-12-13 09:46:00,
2013-12-13 02:51:00,29.3,18.6,30.08,SE,146,4.0,5.0,64,0.00,,,0.00,Wunderground v.1.15,2013-12-13 09:51:00,
2013-12-13 02:57:00,29.0,18.7,30.08,SW,218,4.0,5.0,65,0.00,,,0.00,Wunderground v.1.15,2013-12-13 09:57:00,
2013-12-13 03:02:00,29.0,19.1,30.08,ESE,113,3.0,3.0,66,0.00,,,0.00,Wunderground v.1.15,2013-12-13 10:02:00,
2013-12-13 03:07:00,29.1,18.8,30.08,SSW,195,3.0,3.0,65,0.00,,,0.00,Wunderground v.1.15,2013-12-13 10:07:00,
2013-12-13 03:12:00,29.2,19.2,30.08,SSE,148,2.0,2.0,66,0.00,,,0.00,Wunderground v.1.15,2013-12-13 10:12:00,
2013-12-13 03:21:00,29.3,19.0,30.08,ESE,118,1.0,1.0,65,0.00,,,0.00,Wunderground v.1.15,2013-12-13 10:21:00,
2013-12-13 03:26:00,29.1,19.2,30.08,ESE,114,1.0,3.0,66,0.00,,,0.00,Wunderground v.1.15,2013-12-13 10:26:00,
2013-12-13 03:32:00,28.8,18.9,30.08,ESE,104,2.0,2.0,66,0.00,,,0.00,Wunderground v.1.15,2013-12-13 10:32:00,
2013-12-13 03:37:00,28.7,18.4,30.08,ESE,121,2.0,2.0,65,0.00,,,0.00,Wunderground v.1.15,2013-12-13 10:37:00,
2013-12-13 03:42:00,28.5,19.3,30.08,ENE,62,1.0,1.0,68,0.00,,,0.00,Wunderground v.1.15,2013-12-13 10:42:00,
2013-12-13 03:47:00,28.3,18.4,30.08,SE,131,1.0,3.0,66,0.00,,,0.00,Wunderground v.1.15,2013-12-13 10:47:00,
2013-12-13 03:52:00,28.6,19.4,30.08,East,89,1.0,1.0,68,0.00,,,0.00,Wunderground v.1.15,2013-12-13 10:52:00,
2013-12-13 04:01:00,28.3,19.1,30.08,ENE,58,1.0,2.0,68,0.00,,,0.00,Wunderground v.1.15,2013-12-13 11:01:00,
2013-12-13 04:06:00,28.2,19.0,30.08,NE,53,1.0,2.0,68,0.00,,,0.00,Wunderground v.1.15,2013-12-13 11:06:00,
2013-12-13 04:11:00,27.8,18.9,30.07,SW,222,1.0,1.0,69,0.00,,,0.00,Wunderground v.1.15,2013-12-13 11:11:00,
2013-12-13 04:17:00,27.5,19.3,30.08,WSW,238,0.0,1.0,71,0.00,,,0.00,Wunderground v.1.15,2013-12-13 11:17:00,
2013-12-13 04:22:00,27.6,20.1,30.08,West,263,0.0,0.0,73,0.00,,,0.00,Wunderground v.1.15,2013-12-13 11:22:00,
2013-12-13 04:27:00,27.7,19.8,30.07,WSW,245,0.0,0.0,72,0.00,,,0.00,Wunderground v.1.15,2013-12-13 11:27:00,
2013-12-13 04:32:00,27.5,19.7,30.07,NE,47,0.0,1.0,72,0.00,,,0.00,Wunderground v.1.15,2013-12-13 11:32:00,
2013-12-13 04:41:00,27.3,19.5,30.08,SSE,156,1.0,1.0,72,0.00,,,0.00,Wunderground v.1.15,2013-12-13 11:41:00,
2013-12-13 04:46:00,27.2,19.4,30.08,West,277,1.0,1.0,72,0.00,,,0.00,Wunderground v.1.15,2013-12-13 11:46:00,
2013-12-13 04:51:00,27.3,19.5,30.08,West,281,1.0,1.0,72,0.00,,,0.00,Wunderground v.1.15,2013-12-13 11:51:00,
2013-12-13 04:57:00,28.0,19.5,30.08,SW,218,1.0,1.0,70,0.00,,,0.00,Wunderground v.1.15,2013-12-13 11:57:00,
2013-12-13 05:02:00,28.3,19.8,30.08,NW,310,1.0,2.0,70,0.00,,,0.00,Wunderground v.1.15,2013-12-13 12:02:00,
2013-12-13 05:07:00,29.1,19.8,30.08,SE,134,1.0,2.0,68,0.00,,,0.00,Wunderground v.1.15,2013-12-13 12:07:00,
2013-12-13 05:16:00,28.8,19.2,30.07,SW,224,1.0,1.0,67,0.00,,,0.00,Wunderground v.1.15,2013-12-13 12:16:00,
2013-12-13 05:21:00,28.6,19.0,30.07,NW,314,0.0,1.0,67,0.00,,,0.00,Wunderground v.1.15,2013-12-13 12:21:00,
2013-12-13 05:26:00,28.7,19.1,30.07,NW,319,1.0,1.0,67,0.00,,,0.00,Wunderground v.1.15,2013-12-13 12:26:00,
2013-12-13 05:31:00,28.4,19.2,30.07,East,85,1.0,1.0,68,0.00,,,0.00,Wunderground v.1.15,2013-12-13 12:31:00,
2013-12-13 05:37:00,27.8,18.9,30.07,East,91,1.0,2.0,69,0.00,,,0.00,Wunderground v.1.15,2013-12-13 12:37:00,
2013-12-13 05:42:00,27.6,18.8,30.08,East,89,1.0,1.0,69,0.00,,,0.00,Wunderground v.1.15,2013-12-13 12:42:00,
2013-12-13 05:47:00,27.3,18.8,30.08,ENE,60,1.0,1.0,70,0.00,,,0.00,Wunderground v.1.15,2013-12-13 12:47:00,
2013-12-13 05:57:00,28.4,19.5,30.08,ENE,59,2.0,4.0,69,0.00,,,0.00,Wunderground v.1.15,2013-12-13 12:57:00,
2013-12-13 06:06:00,29.0,20.4,30.08,NE,40,1.0,2.0,70,0.00,,,0.00,Wunderground v.1.15,2013-12-13 13:06:00,
2013-12-13 06:11:00,29.2,20.3,30.08,SW,221,0.0,5.0,69,0.00,,,0.00,Wunderground v.1.15,2013-12-13 13:11:00,
2013-12-13 06:17:00,29.4,19.8,30.08,West,280,2.0,5.0,67,0.00,,,0.00,Wunderground v.1.15,2013-12-13 13:17:00,
2013-12-13 06:22:00,29.6,19.6,30.08,West,274,2.0,3.0,66,0.00,,,0.00,Wunderground v.1.15,2013-12-13 13:22:00,
2013-12-13 06:27:00,29.7,19.7,30.08,WSW,253,2.0,3.0,66,0.00,,,0.00,Wunderground v.1.15,2013-12-13 13:27:00,
2013-12-13 06:32:00,29.8,19.8,30.09,SE,133,2.0,2.0,66,0.00,,,0.00,Wunderground v.1.15,2013-12-13 13:32:00,
2013-12-13 06:41:00,27.1,19.6,30.09,West,278,3.0,3.0,73,0.00,,,0.00,Wunderground v.1.15,2013-12-13 13:41:00,
2013-12-13 06:46:00,26.7,19.2,30.09,SE,133,3.0,5.0,73,0.00,,,0.00,Wunderground v.1.15,2013-12-13 13:46:00,
2013-12-13 06:52:00,26.9,19.4,30.09,East,97,5.0,5.0,73,0.00,,,0.00,Wunderground v.1.15,2013-12-13 13:52:00,
2013-12-13 06:57:00,27.0,20.1,30.09,East,96,6.0,6.0,75,0.00,,,0.00,Wunderground v.1.15,2013-12-13 13:57:00,
2013-12-13 07:02:00,26.6,20.4,30.10,ENE,61,5.0,7.0,77,0.00,,,0.00,Wunderground v.1.15,2013-12-13 14:02:00,
2013-12-13 07:07:00,26.4,20.5,30.10,ENE,58,7.0,7.0,78,0.00,,,0.00,Wunderground v.1.15,2013-12-13 14:07:00,
2013-12-13 07:12:00,26.3,20.7,30.10,ENE,66,8.0,8.0,79,0.00,,,0.00,Wunderground v.1.15,2013-12-13 14:12:00,
2013-12-13 07:21:00,27.1,20.5,30.10,NNE,23,3.0,3.0,76,0.00,,,0.00,Wunderground v.1.15,2013-12-13 14:21:00,
2013-12-13 07:26:00,27.1,20.5,30.11,NNE,32,1.0,4.0,76,0.00,,,0.00,Wunderground v.1.15,2013-12-13 14:26:00,
2013-12-13 07:31:00,27.2,20.3,30.11,NW,310,1.0,1.0,75,0.00,,,0.00,Wunderground v.1.15,2013-12-13 14:31:00,
2013-12-13 07:37:00,27.4,20.2,30.11,South,177,2.0,3.0,74,0.00,,,0.00,Wunderground v.1.15,2013-12-13 14:37:00,
2013-12-13 07:42:00,27.4,20.2,30.11,WNW,302,2.0,2.0,74,0.00,,,0.00,Wunderground v.1.15,2013-12-13 14:42:00,
2013-12-13 07:47:00,27.4,20.5,30.11,NE,34,1.0,2.0,75,0.00,,,0.00,Wunderground v.1.15,2013-12-13 14:47:00,
2013-12-13 07:52:00,27.4,20.5,30.12,NE,51,1.0,1.0,75,0.00,,,0.00,Wunderground v.1.15,2013-12-13 14:52:00,
2013-12-13 08:01:00,27.3,20.7,30.12,SE,126,1.0,1.0,76,0.00,,,0.00,Wunderground v.1.15,2013-12-13 15:01:00,
2013-12-13 08:06:00,27.2,20.6,30.13,SE,125,0.0,1.0,76,0.00,,,0.00,Wunderground v.1.15,2013-12-13 15:06:00,
2013-12-13 08:11:00,27.2,20.9,30.12,SE,124,0.0,0.0,77,0.00,,,0.00,Wunderground v.1.15,2013-12-13 15:11:00,
2013-12-13 08:16:00,27.3,21.0,30.12,West,274,0.0,0.0,77,0.00,,,0.00,Wunderground v.1.15,2013-12-13 15:16:00,
2013-12-13 08:22:00,27.3,21.0,30.12,West,276,0.0,0.0,77,0.00,,,0.00,Wunderground v.1.15,2013-12-13 15:22:00,
2013-12-13 08:27:00,27.3,21.0,30.13,West,276,0.0,0.0,77,0.00,,,0.00,Wunderground v.1.15,2013-12-13 15:27:00,
2013-12-13 08:32:00,27.5,21.5,30.12,West,274,0.0,0.0,78,0.00,,,0.00,Wunderground v.1.15,2013-12-13 15:32:00,
2013-12-13 08:41:00,27.9,21.6,30.13,SE,128,0.0,0.0,77,0.00,,,0.00,Wunderground v.1.15,2013-12-13 15:41:00,
2013-12-13 08:46:00,28.7,22.1,30.13,WNW,302,1.0,1.0,76,0.00,,,0.00,Wunderground v.1.15,2013-12-13 15:46:00,
2013-12-13 08:51:00,29.6,22.0,30.13,SSW,194,1.0,1.0,73,0.00,,,0.00,Wunderground v.1.15,2013-12-13 15:51:00,
2013-12-13 08:56:00,30.4,22.1,30.13,WNW,296,1.0,3.0,71,0.00,,,0.00,Wunderground v.1.15,2013-12-13 15:56:00,
2013-12-13 09:02:00,30.9,21.9,30.13,NW,316,2.0,3.0,69,0.00,,,0.00,Wunderground v.1.15,2013-12-13 16:02:00,
2013-12-13 09:07:00,31.2,22.2,30.13,NW,311,2.0,3.0,69,0.00,,,0.00,Wunderground v.1.15,2013-12-13 16:07:00,
2013-12-13 09:12:00,31.2,22.2,30.13,WNW,301,2.0,3.0,69,0.00,,,0.00,Wunderground v.1.15,2013-12-13 16:12:00,
2013-12-13 09:21:00,31.3,22.3,30.14,WNW,296,3.0,4.0,69,0.00,,,0.00,Wunderground v.1.15,2013-12-13 16:21:00,
2013-12-13 09:26:00,31.4,22.1,30.14,WNW,289,4.0,4.0,68,0.00,,,0.00,Wunderground v.1.15,2013-12-13 16:26:00,
2013-12-13 09:31:00,31.5,22.1,30.14,NW,305,4.0,4.0,68,0.00,,,0.00,Wunderground v.1.15,2013-12-13 16:31:00,
2013-12-13 09:36:00,31.6,22.2,30.14,NW,312,4.0,4.0,68,0.00,,,0.00,Wunderground v.1.15,2013-12-13 16:36:00,
2013-12-13 09:42:00,31.7,22.0,30.14,West,259,4.0,4.0,67,0.00,,,0.00,Wunderground v.1.15,2013-12-13 16:42:00,
2013-12-13 09:47:00,32.1,20.9,30.14,West,270,5.0,7.0,63,0.00,,,0.00,Wunderground v.1.15,2013-12-13 16:47:00,
2013-12-13 09:52:00,32.5,21.7,30.14,WNW,289,6.0,6.0,64,0.00,,,0.00,Wunderground v.1.15,2013-12-13 16:52:00,
2013-12-13 10:02:00,32.8,21.2,30.13,WNW,295,6.0,6.0,62,0.00,,,0.00,Wunderground v.1.15,2013-12-13 17:02:00,
2013-12-13 10:11:00,33.1,21.1,30.14,WNW,302,6.0,6.0,61,0.00,,,0.00,Wunderground v.1.15,2013-12-13 17:11:00,
2013-12-13 10:16:00,33.1,21.1,30.14,WNW,294,7.0,7.0,61,0.00,,,0.00,Wunderground v.1.15,2013-12-13 17:16:00,
2013-12-13 10:22:00,33.1,21.1,30.14,WNW,295,7.0,7.0,61,0.00,,,0.00,Wunderground v.1.15,2013-12-13 17:22:00,
2013-12-13 10:27:00,33.3,21.3,30.14,NW,304,7.0,7.0,61,0.00,,,0.00,Wunderground v.1.15,2013-12-13 17:27:00,
2013-12-13 10:32:00,33.4,21.4,30.15,WSW,245,8.0,8.0,61,0.00,,,0.00,Wunderground v.1.15,2013-12-13 17:32:00,
2013-12-13 10:37:00,33.5,21.9,30.15,WNW,297,7.0,10.0,62,0.00,,,0.00,Wunderground v.1.15,2013-12-13 17:37:00,
2013-12-13 10:46:00,33.2,22.3,30.15,SW,231,8.0,8.0,64,0.00,,,0.00,Wunderground v.1.15,2013-12-13 17:46:00,
2013-12-13 10:51:00,33.2,22.3,30.15,WNW,301,7.0,7.0,64,0.00,,,0.00,Wunderground v.1.15,2013-12-13 17:51:00,
2013-12-13 10:57:00,33.3,22.4,30.15,NW,304,6.0,7.0,64,0.00,,,0.00,Wunderground v.1.15,2013-12-13 17:57:00,
2013-12-13 11:02:00,33.5,22.2,30.15,WNW,300,5.0,7.0,63,0.00,,,0.00,Wunderground v.1.15,2013-12-13 18:02:00,
2013-12-13 11:07:00,33.5,22.2,30.15,NW,311,5.0,7.0,63,0.00,,,0.00,Wunderground v.1.15,2013-12-13 18:07:00,
2013-12-13 11:12:00,33.6,22.3,30.15,West,269,6.0,10.0,63,0.00,,,0.00,Wunderground v.1.15,2013-12-13 18:12:00,
2013-12-13 11:17:00,33.7,21.7,30.15,WNW,291,7.0,10.0,61,0.00,,,0.00,Wunderground v.1.15,2013-12-13 18:17:00,
2013-12-13 11:26:00,33.8,21.8,30.15,NW,314,7.0,7.0,61,0.00,,,0.00,Wunderground v.1.15,2013-12-13 18:26:00,
2013-12-13 11:31:00,33.9,21.5,30.15,NW,309,8.0,8.0,60,0.00,,,0.00,Wunderground v.1.15,2013-12-13 18:31:00,
2013-12-13 11:37:00,34.0,22.0,30.15,NW,307,8.0,8.0,61,0.00,,,0.00,Wunderground v.1.15,2013-12-13 18:37:00,
2013-12-13 11:42:00,34.1,21.7,30.15,WNW,294,8.0,8.0,60,0.00,,,0.00,Wunderground v.1.15,2013-12-13 18:42:00,
2013-12-13 11:47:00,34.1,22.0,30.14,NW,313,6.0,8.0,61,0.00,,,0.00,Wunderground v.1.15,2013-12-13 18:47:00,
2013-12-13 11:52:00,34.3,22.2,30.14,WNW,292,6.0,6.0,61,0.00,,,0.00,Wunderground v.1.15,2013-12-13 18:52:00,
2013-12-13 12:01:00,34.5,22.4,30.15,NW,320,6.0,7.0,61,0.00,,,0.00,Wunderground v.1.15,2013-12-13 19:01:00,
2013-12-13 12:06:00,34.6,22.1,30.14,NW,305,6.0,7.0,60,0.00,,,0.00,Wunderground v.1.15,2013-12-13 19:06:00,
2013-12-13 12:11:00,34.5,22.0,30.14,WNW,294,7.0,7.0,60,0.00,,,0.00,Wunderground v.1.15,2013-12-13 19:11:00,
2013-12-13 12:16:00,34.6,22.1,30.14,NW,304,7.0,7.0,60,0.00,,,0.00,Wunderground v.1.15,2013-12-13 19:16:00,
2013-12-13 12:22:00,34.7,22.2,30.14,NW,315,7.0,7.0,60,0.00,,,0.00,Wunderground v.1.15,2013-12-13 19:22:00,
2013-12-13 12:27:00,34.8,22.3,30.14,NW,307,6.0,7.0,60,0.00,,,0.00,Wunderground v.1.15,2013-12-13 19:27:00,
2013-12-13 12:32:00,34.8,22.3,30.14,WNW,295,7.0,10.0,60,0.00,,,0.00,Wunderground v.1.15,2013-12-13 19:32:00,
2013-12-13 12:41:00,35.3,22.8,30.13,NNW,327,8.0,10.0,60,0.00,,,0.00,Wunderground v.1.15,2013-12-13 19:41:00,
2013-12-13 12:46:00,35.7,22.8,30.14,WNW,299,8.0,10.0,59,0.00,,,0.00,Wunderground v.1.15,2013-12-13 19:46:00,
2013-12-13 12:51:00,35.9,23.0,30.14,WNW,302,8.0,13.0,59,0.00,,,0.00,Wunderground v.1.15,2013-12-13 19:51:00,
2013-12-13 12:56:00,35.8,23.3,30.14,WNW,298,9.0,13.0,60,0.00,,,0.00,Wunderground v.1.15,2013-12-13 19:56:00,
2013-12-13 13:02:00,35.7,23.6,30.14,NW,304,10.0,13.0,61,0.00,,,0.00,Wunderground v.1.15,2013-12-13 20:02:00,
2013-12-13 13:07:00,35.5,23.8,30.14,NW,307,9.0,13.0,62,0.00,,,0.00,Wunderground v.1.15,2013-12-13 20:07:00,
2013-12-13 13:12:00,35.4,23.7,30.15,WNW,297,9.0,13.0,62,0.00,,,0.00,Wunderground v.1.15,2013-12-13 20:12:00,
2013-12-13 13:21:00,35.5,23.4,30.15,North,354,8.0,8.0,61,0.00,,,0.00,Wunderground v.1.15,2013-12-13 20:21:00,
2013-12-13 13:26:00,35.4,23.7,30.15,WNW,300,8.0,8.0,62,0.00,,,0.00,Wunderground v.1.15,2013-12-13 20:26:00,
2013-12-13 13:31:00,34.9,23.6,30.15,NW,305,8.0,9.0,63,0.00,,,0.00,Wunderground v.1.15,2013-12-13 20:31:00,
2013-12-13 13:36:00,34.5,23.9,30.15,West,267,8.0,9.0,65,0.00,,,0.00,Wunderground v.1.15,2013-12-13 20:36:00,
2013-12-13 13:42:00,34.3,23.7,30.16,NW,311,7.0,8.0,65,0.00,,,0.00,Wunderground v.1.15,2013-12-13 20:42:00,
2013-12-13 13:47:00,34.5,23.9,30.16,NW,325,7.0,8.0,65,0.00,,,0.00,Wunderground v.1.15,2013-12-13 20:47:00,
2013-12-13 13:52:00,34.7,23.8,30.16,West,281,6.0,6.0,64,0.00,,,0.00,Wunderground v.1.15,2013-12-13 20:52:00,
2013-12-13 14:01:00,35.5,23.8,30.16,NW,306,7.0,7.0,62,0.00,,,0.00,Wunderground v.1.15,2013-12-13 21:01:00,
2013-12-13 14:06:00,35.8,23.7,30.16,WNW,283,7.0,7.0,61,0.00,,,0.00,Wunderground v.1.15,2013-12-13 21:06:00,
2013-12-13 14:11:00,35.8,23.7,30.16,WNW,300,8.0,9.0,61,0.00,,,0.00,Wunderground v.1.15,2013-12-13 21:11:00,
2013-12-13 14:16:00,35.5,24.1,30.17,WNW,300,9.0,11.0,63,0.00,,,0.00,Wunderground v.1.15,2013-12-13 21:16:00,
2013-12-13 14:22:00,35.3,24.3,30.17,WNW,302,8.0,8.0,64,0.00,,,0.00,Wunderground v.1.15,2013-12-13 21:22:00,
2013-12-13 14:27:00,35.3,24.7,30.17,West,267,6.0,8.0,65,0.00,,,0.00,Wunderground v.1.15,2013-12-13 21:27:00,
2013-12-13 14:32:00,35.2,24.2,30.17,WNW,297,6.0,6.0,64,0.00,,,0.00,Wunderground v.1.15,2013-12-13 21:32:00,
2013-12-13 14:37:00,35.3,24.0,30.16,WNW,286,7.0,7.0,63,0.00,,,0.00,Wunderground v.1.15,2013-12-13 21:37:00,
2013-12-13 14:46:00,35.7,24.3,30.17,NW,311,6.0,6.0,63,0.00,,,0.00,Wunderground v.1.15,2013-12-13 21:46:00,
2013-12-13 14:51:00,35.6,24.2,30.17,SSE,162,8.0,8.0,63,0.00,,,0.00,Wunderground v.1.15,2013-12-13 21:51:00,
2013-12-13 14:57:00,35.5,24.1,30.17,WNW,290,9.0,16.0,63,0.00,,,0.00,Wunderground v.1.15,2013-12-13 21:57:00,
2013-12-13 15:02:00,35.2,24.2,30.17,West,281,10.0,10.0,64,0.00,,,0.00,Wunderground v.1.15,2013-12-13 22:02:00,
2013-12-13 15:07:00,35.1,24.5,30.17,NW,315,9.0,11.0,65,0.00,,,0.00,Wunderground v.1.15,2013-12-13 22:07:00,
2013-12-13 15:12:00,35.3,24.3,30.17,NW,311,9.0,11.0,64,0.00,,,0.00,Wunderground v.1.15,2013-12-13 22:12:00,
2013-12-13 15:17:00,35.2,23.9,30.17,NW,313,10.0,11.0,63,0.00,,,0.00,Wunderground v.1.15,2013-12-13 22:17:00,
2013-12-13 15:26:00,34.8,24.2,30.18,WNW,301,9.0,12.0,65,0.00,,,0.00,Wunderground v.1.15,2013-12-13 22:26:00,
2013-12-13 15:31:00,34.6,24.4,30.18,WSW,245,9.0,9.0,66,0.00,,,0.00,Wunderground v.1.15,2013-12-13 22:31:00,
2013-12-13 15:37:00,34.6,24.4,30.19,West,273,9.0,9.0,66,0.00,,,0.00,Wunderground v.1.15,2013-12-13 22:37:00,
2013-12-13 15:42:00,34.5,24.7,30.19,WNW,285,9.0,9.0,67,0.00,,,0.00,Wunderground v.1.15,2013-12-13 22:42:00,
2013-12-13 15:47:00,34.5,25.0,30.20,WNW,302,8.0,9.0,68,0.00,,,0.00,Wunderground v.1.15,2013-12-13 22:47:00,
2013-12-13 15:52:00,34.4,24.9,30.20,WNW,283,8.0,8.0,68,0.00,,,0.00,Wunderground v.1.15,2013-12-13 22:52:00,
2013-12-13 16:01:00,34.5,25.0,30.21,NW,316,6.0,6.0,68,0.00,,,0.00,Wunderground v.1.15,2013-12-13 23:01:00,
2013-12-13 16:06:00,34.5,25.0,30.21,WNW,295,6.0,7.0,68,0.00,,,0.00,Wunderground v.1.15,2013-12-13 23:06:00,
2013-12-13 16:11:00,34.3,25.5,30.21,WNW,289,5.0,5.0,70,0.00,,,0.00,Wunderground v.1.15,2013-12-13 23:11:00,
2013-12-13 16:17:00,34.3,25.2,30.22,NW,311,5.0,5.0,69,0.00,,,0.00,Wunderground v.1.15,2013-12-13 23:17:00,
2013-12-13 16:22:00,34.3,25.2,30.21,NW,304,4.0,5.0,69,0.00,,,0.00,Wunderground v.1.15,2013-12-13 23:22:00,
2013-12-13 16:27:00,34.2,25.1,30.21,West,266,4.0,6.0,69,0.00,,,0.00,Wunderground v.1.15,2013-12-13 23:27:00,
2013-12-13 16:32:00,34.1,25.0,30.22,WSW,253,5.0,5.0,69,0.00,,,0.00,Wunderground v.1.15,2013-12-13 23:32:00,
2013-12-13 16:41:00,34.0,25.2,30.22,NW,316,5.0,5.0,70,0.00,,,0.00,Wunderground v.1.15,2013-12-13 23:41:00,
2013-12-13 16:46:00,33.9,25.1,30.22,WNW,291,6.0,7.0,70,0.00,,,0.00,Wunderground v.1.15,2013-12-13 23:46:00,
2013-12-13 16:52:00,33.7,25.3,30.23,NW,304,7.0,8.0,71,0.00,,,0.00,Wunderground v.1.15,2013-12-13 23:52:00,
2013-12-13 16:57:00,33.7,25.0,30.23,WNW,295,7.0,9.0,70,0.00,,,0.00,Wunderground v.1.15,2013-12-13 23:57:00,
2013-12-13 17:02:00,33.7,25.0,30.23,West,280,7.0,9.0,70,0.00,,,0.00,Wunderground v.1.15,2013-12-14 00:02:00,
2013-12-13 17:07:00,33.7,25.0,30.23,West,276,7.0,9.0,70,0.00,,,0.00,Wunderground v.1.15,2013-12-14 00:07:00,
2013-12-13 17:16:00,33.3,25.6,30.24,West,277,5.0,8.0,73,0.00,,,0.00,Wunderground v.1.15,2013-12-14 00:16:00,
2013-12-13 17:21:00,32.9,25.5,30.24,West,274,5.0,5.0,74,0.00,,,0.00,Wunderground v.1.15,2013-12-14 00:21:00,
2013-12-13 17:26:00,32.7,26.0,30.24,West,280,4.0,6.0,76,0.00,,,0.00,Wunderground v.1.15,2013-12-14 00:26:00,
2013-12-13 17:37:00,32.5,26.1,30.24,WNW,297,3.0,4.0,77,0.00,,,0.00,Wunderground v.1.15,2013-12-14 00:37:00,
2013-12-13 17:42:00,32.4,26.0,30.25,WNW,283,3.0,3.0,77,0.00,,,0.00,Wunderground v.1.15,2013-12-14 00:42:00,
2013-12-13 17:47:00,32.4,26.0,30.25,WSW,253,3.0,5.0,77,0.00,,,0.00,Wunderground v.1.15,2013-12-14 00:47:00,
2013-12-13 17:56:00,32.3,25.9,30.24,SW,236,4.0,5.0,77,0.00,,,0.00,Wunderground v.1.15,2013-12-14 00:56:00,
2013-12-13 18:01:00,32.2,25.8,30.25,West,266,3.0,3.0,77,0.00,,,0.00,Wunderground v.1.15,2013-12-14 01:01:00,
2013-12-13 18:06:00,32.2,25.8,30.24,West,259,3.0,3.0,77,0.00,,,0.00,Wunderground v.1.15,2013-12-14 01:06:00,
2013-12-13 18:11:00,32.1,25.7,30.25,West,259,2.0,2.0,77,0.00,,,0.00,Wunderground v.1.15,2013-12-14 01:11:00,
2013-12-13 18:17:00,32.1,25.4,30.25,WNW,295,2.0,4.0,76,0.00,,,0.00,Wunderground v.1.15,2013-12-14 01:17:00,
2013-12-13 18:22:00,32.1,25.7,30.24,WNW,284,3.0,3.0,77,0.00,,,0.00,Wunderground v.1.15,2013-12-14 01:22:00,
2013-12-13 18:27:00,32.1,25.7,30.25,West,275,3.0,3.0,77,0.00,,,0.00,Wunderground v.1.15,2013-12-14 01:27:00,
2013-12-13 18:36:00,32.1,25.7,30.25,West,259,2.0,5.0,77,0.00,,,0.00,Wunderground v.1.15,2013-12-14 01:36:00,
2013-12-13 18:41:00,32.1,25.7,30.26,West,267,2.0,2.0,77,0.00,,,0.00,Wunderground v.1.15,2013-12-14 01:41:00,
2013-12-13 18:46:00,32.1,25.4,30.27,West,278,2.0,3.0,76,0.00,,,0.00,Wunderground v.1.15,2013-12-14 01:46:00,
2013-12-13 18:51:00,32.1,25.4,30.27,West,267,3.0,3.0,76,0.00,,,0.00,Wunderground v.1.15,2013-12-14 01:51:00,
2013-12-13 18:57:00,32.3,25.3,30.27,West,270,3.0,3.0,75,0.00,,,0.00,Wunderground v.1.15,2013-12-14 01:57:00,
2013-12-13 19:02:00,32.2,25.5,30.27,West,260,2.0,2.0,76,0.00,,,0.00,Wunderground v.1.15,2013-12-14 02:02:00,
2013-12-13 19:11:00,32.0,25.3,30.26,West,273,2.0,3.0,76,0.00,,,0.00,Wunderground v.1.15,2013-12-14 02:11:00,
2013-12-13 19:16:00,32.0,25.3,30.27,WNW,291,3.0,3.0,76,0.00,,,0.00,Wunderground v.1.15,2013-12-14 02:16:00,
2013-12-13 19:21:00,32.2,25.2,30.27,NW,310,3.0,6.0,75,0.00,,,0.00,Wunderground v.1.15,2013-12-14 02:21:00,
2013-12-13 19:27:00,32.4,25.4,30.27,West,274,4.0,6.0,75,0.00,,,0.00,Wunderground v.1.15,2013-12-14 02:27:00,
2013-12-13 19:32:00,32.2,25.5,30.28,West,280,3.0,3.0,76,0.00,,,0.00,Wunderground v.1.15,2013-12-14 02:32:00,
2013-12-13 19:37:00,32.0,25.6,30.28,West,266,2.0,3.0,77,0.00,,,0.00,Wunderground v.1.15,2013-12-14 02:37:00,
2013-12-13 19:46:00,31.8,25.7,30.29,WSW,256,2.0,4.0,78,0.00,,,0.00,Wunderground v.1.15,2013-12-14 02:46:00,
2013-12-13 19:51:00,31.6,25.5,30.29,West,277,1.0,1.0,78,0.00,,,0.00,Wunderground v.1.15,2013-12-14 02:51:00,
2013-12-13 19:56:00,31.4,25.6,30.29,West,280,1.0,1.0,79,0.00,,,0.00,Wunderground v.1.15,2013-12-14 02:56:00,
2013-12-13 20:02:00,31.3,25.5,30.29,WSW,250,1.0,3.0,79,0.00,,,0.00,Wunderground v.1.15,2013-12-14 03:02:00,
2013-12-13 20:07:00,31.3,25.5,30.30,WSW,250,2.0,3.0,79,0.00,,,0.00,Wunderground v.1.15,2013-12-14 03:07:00,
2013-12-13 20:12:00,31.3,25.5,30.30,WSW,243,2.0,4.0,79,0.00,,,0.00,Wunderground v.1.15,2013-12-14 03:12:00,
2013-12-13 20:21:00,31.6,25.5,30.30,West,270,3.0,3.0,78,0.00,,,0.00,Wunderground v.1.15,2013-12-14 03:21:00,
2013-12-13 20:31:00,31.6,26.1,30.30,WSW,256,2.0,2.0,80,0.00,,,0.00,Wunderground v.1.15,2013-12-14 03:31:00,
2013-12-13 20:36:00,31.6,26.4,30.30,West,269,3.0,4.0,81,0.00,,,0.00,Wunderground v.1.15,2013-12-14 03:36:00,
2013-12-13 20:42:00,31.6,26.4,30.30,WSW,257,3.0,3.0,81,0.00,,,0.00,Wunderground v.1.15,2013-12-14 03:42:00,
2013-12-13 20:47:00,31.5,26.3,30.30,West,273,3.0,4.0,81,0.00,,,0.00,Wunderground v.1.15,2013-12-14 03:47:00,
2013-12-13 20:52:00,31.6,26.4,30.30,West,277,3.0,4.0,81,0.00,,,0.00,Wunderground v.1.15,2013-12-14 03:52:00,
2013-12-13 21:01:00,32.3,25.9,30.31,WSW,243,4.0,5.0,77,0.00,,,0.00,Wunderground v.1.15,2013-12-14 04:01:00,
2013-12-13 21:06:00,32.5,25.8,30.30,West,260,4.0,5.0,76,0.00,,,0.00,Wunderground v.1.15,2013-12-14 04:06:00,
2013-12-13 21:11:00,32.9,25.5,30.30,West,277,4.0,4.0,74,0.00,,,0.00,Wunderground v.1.15,2013-12-14 04:11:00,
2013-12-13 21:16:00,33.0,25.3,30.30,WSW,251,4.0,5.0,73,0.00,,,0.00,Wunderground v.1.15,2013-12-14 04:16:00,
2013-12-13 21:22:00,33.0,25.3,30.30,WSW,248,3.0,3.0,73,0.00,,,0.00,Wunderground v.1.15,2013-12-14 04:22:00,
2013-12-13 21:27:00,32.9,25.5,30.29,WNW,296,2.0,4.0,74,0.00,,,0.00,Wunderground v.1.15,2013-12-14 04:27:00,
2013-12-13 21:37:00,33.1,25.1,30.30,WNW,290,2.0,2.0,72,0.00,,,0.00,Wunderground v.1.15,2013-12-14 04:37:00,
2013-12-13 21:46:00,33.2,24.8,30.31,West,270,1.0,1.0,71,0.00,,,0.00,Wunderground v.1.15,2013-12-14 04:46:00,
2013-12-13 21:51:00,33.2,24.8,30.31,West,263,1.0,1.0,71,0.00,,,0.00,Wunderground v.1.15,2013-12-14 04:51:00,
2013-12-13 21:57:00,33.3,24.9,30.30,West,274,1.0,5.0,71,0.00,,,0.00,Wunderground v.1.15,2013-12-14 04:57:00,
2013-12-13 22:02:00,33.4,24.7,30.30,West,276,2.0,2.0,70,0.00,,,0.00,Wunderground v.1.15,2013-12-14 05:02:00,
2013-12-13 22:07:00,33.4,24.7,30.30,West,276,2.0,12.0,70,0.00,,,0.00,Wunderground v.1.15,2013-12-14 05:07:00,
2013-12-13 22:12:00,33.7,24.3,30.30,NW,311,2.0,2.0,68,0.00,,,0.00,Wunderground v.1.15,2013-12-14 05:12:00,
2013-12-13 22:21:00,33.6,24.5,30.30,NW,323,1.0,1.0,69,0.00,,,0.00,Wunderground v.1.15,2013-12-14 05:21:00,
2013-12-13 22:26:00,33.5,24.4,30.30,NNW,342,0.0,1.0,69,0.00,,,0.00,Wunderground v.1.15,2013-12-14 05:26:00,
2013-12-13 22:32:00,33.5,24.4,30.31,West,271,0.0,1.0,69,0.00,,,0.00,Wunderground v.1.15,2013-12-14 05:32:00,
2013-12-13 22:37:00,33.4,24.7,30.31,ESE,121,0.0,3.0,70,0.00,,,0.00,Wunderground v.1.15,2013-12-14 05:37:00,
2013-12-13 22:42:00,33.0,24.3,30.31,ENE,72,2.0,2.0,70,0.00,,,0.00,Wunderground v.1.15,2013-12-14 05:42:00,
2013-12-13 22:47:00,32.9,24.5,30.31,East,94,2.0,2.0,71,0.00,,,0.00,Wunderground v.1.15,2013-12-14 05:47:00,
2013-12-13 22:52:00,32.9,24.5,30.31,WSW,252,1.0,1.0,71,0.00,,,0.00,Wunderground v.1.15,2013-12-14 05:52:00,
2013-12-13 22:56:00,32.8,24.1,30.31,WSW,253,2.0,4.0,70,0.00,,,0.00,Wunderground v.1.15,2013-12-14 05:56:00,
2013-12-13 23:01:00,33.5,23.7,30.31,NW,309,2.0,2.0,67,0.00,,,0.00,Wunderground v.1.15,2013-12-14 06:01:00,
2013-12-13 23:06:00,33.5,23.7,30.31,WNW,283,1.0,2.0,67,0.00,,,0.00,Wunderground v.1.15,2013-12-14 06:06:00,
2013-12-13 23:12:00,33.9,22.2,30.31,WNW,294,2.0,4.0,62,0.00,,,0.00,Wunderground v.1.15,2013-12-14 06:12:00,
2013-12-13 23:17:00,34.1,23.2,30.32,North,354,3.0,4.0,64,0.00,,,0.00,Wunderground v.1.15,2013-12-14 06:17:00,
2013-12-13 23:22:00,34.0,23.5,30.32,WNW,283,1.0,1.0,65,0.00,,,0.00,Wunderground v.1.15,2013-12-14 06:22:00,
2013-12-13 23:27:00,33.8,23.3,30.32,NW,307,1.0,2.0,65,0.00,,,0.00,Wunderground v.1.15,2013-12-14 06:27:00,
2013-12-13 23:36:00,34.3,22.6,30.32,West,275,4.0,7.0,62,0.00,,,0.00,Wunderground v.1.15,2013-12-14 06:36:00,
2013-12-13 23:41:00,34.2,22.1,30.32,WSW,242,4.0,4.0,61,0.00,,,0.00,Wunderground v.1.15,2013-12-14 06:41:00,
2013-12-13 23:46:00,34.5,21.6,30.32,NW,311,4.0,4.0,59,0.00,,,0.00,Wunderground v.1.15,2013-12-14 06:46:00,
2013-12-13 23:51:00,34.7,21.4,30.32,NW,311,5.0,5.0,58,0.00,,,0.00,Wunderground v.1.15,2013-12-14 06:51:00,
2013-12-13 23:57:00,34.8,21.5,30.32,WNW,292,5.0,5.0,58,0.00,,,0.00,Wunderground v.1.15,2013-12-14 06:57:00,